Time,TemperatureF,DewpointF,PressureIn,WindDirection,WindDirectionDegrees,WindSpeedMPH,WindSpeedGustMPH,Humidity,HourlyPrecipIn,Conditions,Clouds,dailyrainin,SoftwareType,DateUTC
2013-01-01 00:02:00,25.0,21.0,-100.00,North,350,11.0,14.0,86,-99.99,,,-99.99,,2013-01-01 06:02:00,
2013-01-01 00:12:00,24.0,20.0,-100.00,North,355,14.0,16.0,85,-99.99,,,-99.99,,2013-01-01 06:12:00,
2013-01-01 00:22:00,24.0,20.0,-100.00,North,355,14.0,16.0,85,-99.99,,,-99.99,,2013-01-01 06:22:00,
2013-01-01 00:43:00,24.0,20.0,-100.00,North,5,14.0,14.0,83,-99.99,,,-99.99,,2013-01-01 06:43:00,
2013-01-01 00:52:00,24.0,20.0,-100.00,North,5,14.0,14.0,83,-99.99,,,-99.99,,2013-01-01 06:52:00,
2013-01-01 01:12:00,24.0,19.0,-100.00,North,5,12.0,16.0,82,-99.99,,,-99.99,,2013-01-01 07:12:00,
2013-01-01 01:22:00,23.0,18.0,-100.00,North,5,9.0,11.0,82,-99.99,,,-99.99,,2013-01-01 07:22:00,
2013-01-01 01:32:00,23.0,18.0,-100.00,North,5,9.0,11.0,82,-99.99,,,-99.99,,2013-01-01 07:32:00,
2013-01-01 01:42:00,23.0,18.0,-100.00,North,350,11.0,14.0,82,-99.99,,,-99.99,,2013-01-01 07:42:00,
2013-01-01 01:53:00,22.0,17.0,-100.00,North,350,14.0,17.0,82,-99.99,,,-99.99,,2013-01-01 07:53:00,
2013-01-01 02:02:00,22.0,17.0,-100.00,North,350,14.0,17.0,82,-99.99,,,-99.99,,2013-01-01 08:02:00,
2013-01-01 02:12:00,22.0,17.0,-100.00,North,350,14.0,17.0,82,-99.99,,,-99.99,,2013-01-01 08:12:00,
2013-01-01 02:22:00,22.0,17.0,-100.00,North,350,11.0,14.0,80,-99.99,,,-99.99,,2013-01-01 08:22:00,
2013-01-01 02:32:00,22.0,17.0,-100.00,North,350,11.0,14.0,80,-99.99,,,-99.99,,2013-01-01 08:32:00,
2013-01-01 02:42:00,22.0,17.0,-100.00,North,350,14.0,17.0,80,-99.99,,,-99.99,,2013-01-01 08:42:00,
2013-01-01 02:53:00,22.0,17.0,-100.00,North,350,14.0,17.0,80,-99.99,,,-99.99,,2013-01-01 08:53:00,
2013-01-01 03:02:00,22.0,17.0,-100.00,North,350,14.0,17.0,80,-99.99,,,-99.99,,2013-01-01 09:02:00,
2013-01-01 03:22:00,22.0,17.0,-100.00,North,5,9.0,10.0,79,-99.99,,,-99.99,,2013-01-01 09:22:00,
2013-01-01 03:32:00,22.0,17.0,-100.00,North,5,9.0,10.0,79,-99.99,,,-99.99,,2013-01-01 09:32:00,
2013-01-01 03:42:00,22.0,17.0,-100.00,North,350,8.0,11.0,79,-99.99,,,-99.99,,2013-01-01 09:42:00,
2013-01-01 03:52:00,21.0,16.0,-100.00,North,350,8.0,10.0,79,-99.99,,,-99.99,,2013-01-01 09:52:00,
2013-01-01 04:02:00,21.0,16.0,-100.00,North,350,8.0,10.0,79,-99.99,,,-99.99,,2013-01-01 10:02:00,
2013-01-01 04:12:00,21.0,16.0,-100.00,North,350,9.0,11.0,79,-99.99,,,-99.99,,2013-01-01 10:12:00,
2013-01-01 04:22:00,21.0,16.0,-100.00,NNW,345,11.0,14.0,79,-99.99,,,-99.99,,2013-01-01 10:22:00,
2013-01-01 04:33:00,21.0,16.0,-100.00,NNW,345,11.0,14.0,79,-99.99,,,-99.99,,2013-01-01 10:33:00,
2013-01-01 04:42:00,21.0,16.0,-100.00,NNW,340,14.0,16.0,79,-99.99,,,-99.99,,2013-01-01 10:42:00,
2013-01-01 04:53:00,21.0,16.0,-100.00,North,350,11.0,12.0,79,-99.99,,,-99.99,,2013-01-01 10:53:00,
2013-01-01 05:02:00,21.0,16.0,-100.00,North,350,11.0,12.0,79,-99.99,,,-99.99,,2013-01-01 11:02:00,
2013-01-01 05:12:00,21.0,16.0,-100.00,North,350,11.0,12.0,79,-99.99,,,-99.99,,2013-01-01 11:12:00,
2013-01-01 05:33:00,21.0,15.0,-100.00,NNW,340,11.0,14.0,78,-99.99,,,-99.99,,2013-01-01 11:33:00,
2013-01-01 05:42:00,21.0,16.0,-100.00,North,350,9.0,11.0,79,-99.99,,,-99.99,,2013-01-01 11:42:00,
2013-01-01 05:53:00,21.0,16.0,-100.00,North,350,9.0,11.0,79,-99.99,,,-99.99,,2013-01-01 11:53:00,
2013-01-01 06:12:00,21.0,16.0,-100.00,North,350,10.0,11.0,79,-99.99,,,-99.99,,2013-01-01 12:12:00,
2013-01-01 06:22:00,21.0,16.0,-100.00,North,350,10.0,11.0,79,-99.99,,,-99.99,,2013-01-01 12:22:00,
2013-01-01 06:33:00,21.0,16.0,-100.00,North,5,10.0,14.0,79,-99.99,,,-99.99,,2013-01-01 12:33:00,
2013-01-01 06:42:00,21.0,16.0,-100.00,North,5,10.0,14.0,79,-99.99,,,-99.99,,2013-01-01 12:42:00,
2013-01-01 06:53:00,21.0,16.0,-100.00,North,5,10.0,14.0,79,-99.99,,,-99.99,,2013-01-01 12:53:00,
2013-01-01 07:02:00,21.0,16.0,-100.00,North,5,10.0,14.0,79,-99.99,,,-99.99,,2013-01-01 13:02:00,
2013-01-01 07:12:00,20.0,14.0,-100.00,North,10,12.0,14.0,78,-99.99,,,-99.99,,2013-01-01 13:12:00,
2013-01-01 07:22:00,20.0,14.0,-100.00,North,10,12.0,14.0,78,-99.99,,,-99.99,,2013-01-01 13:22:00,
2013-01-01 09:12:00,18.0,13.0,-100.00,NNW,330,11.0,12.0,80,-99.99,,,-99.99,,2013-01-01 15:12:00,
2013-01-01 09:22:00,18.0,13.0,-100.00,NNW,330,9.0,11.0,79,-99.99,,,-99.99,,2013-01-01 15:22:00,
2013-01-01 09:33:00,18.0,13.0,-100.00,NNW,330,9.0,11.0,79,-99.99,,,-99.99,,2013-01-01 15:33:00,
2013-01-01 09:42:00,18.0,13.0,-100.00,NNW,330,9.0,11.0,79,-99.99,,,-99.99,,2013-01-01 15:42:00,
2013-01-01 09:53:00,20.0,13.0,-100.00,NW,325,9.0,11.0,75,-99.99,,,-99.99,,2013-01-01 15:53:00,
2013-01-01 10:02:00,20.0,13.0,-100.00,NW,325,9.0,11.0,75,-99.99,,,-99.99,,2013-01-01 16:02:00,
2013-01-01 10:12:00,21.0,14.0,-100.00,NNW,335,8.0,9.0,73,-99.99,,,-99.99,,2013-01-01 16:12:00,
2013-01-01 10:22:00,21.0,14.0,-100.00,NNW,335,8.0,9.0,73,-99.99,,,-99.99,,2013-01-01 16:22:00,
2013-01-01 10:33:00,22.0,14.0,-100.00,NNW,330,11.0,14.0,71,-99.99,,,-99.99,,2013-01-01 16:33:00,
2013-01-01 10:42:00,22.0,14.0,-100.00,NNW,330,11.0,14.0,71,-99.99,,,-99.99,,2013-01-01 16:42:00,
2013-01-01 10:53:00,21.0,13.0,-100.00,North,5,9.0,12.0,71,-99.99,,,-99.99,,2013-01-01 16:53:00,
2013-01-01 11:02:00,21.0,13.0,-100.00,North,5,9.0,12.0,71,-99.99,,,-99.99,,2013-01-01 17:02:00,
2013-01-01 11:12:00,21.0,13.0,-100.00,North,350,11.0,14.0,70,-99.99,,,-99.99,,2013-01-01 17:12:00,
2013-01-01 11:22:00,21.0,12.0,-100.00,North,355,11.0,12.0,69,-99.99,,,-99.99,,2013-01-01 17:22:00,
2013-01-01 11:33:00,21.0,12.0,-100.00,North,355,11.0,12.0,69,-99.99,,,-99.99,,2013-01-01 17:33:00,
2013-01-01 11:43:00,21.0,12.0,-100.00,North,355,11.0,12.0,69,-99.99,,,-99.99,,2013-01-01 17:43:00,
2013-01-01 11:53:00,23.0,14.0,-100.00,NNW,345,9.0,11.0,67,-99.99,,,-99.99,,2013-01-01 17:53:00,
2013-01-01 12:03:00,23.0,14.0,-100.00,NNW,345,9.0,11.0,67,-99.99,,,-99.99,,2013-01-01 18:03:00,
2013-01-01 12:12:00,23.0,13.0,-100.00,NNW,335,12.0,14.0,66,-99.99,,,-99.99,,2013-01-01 18:12:00,
2013-01-01 12:22:00,23.0,13.0,-100.00,NNW,330,10.0,14.0,64,-99.99,,,-99.99,,2013-01-01 18:22:00,
2013-01-01 12:33:00,23.0,12.0,-100.00,NNW,330,14.0,14.0,61,-99.99,,,-99.99,,2013-01-01 18:33:00,
2013-01-01 12:42:00,23.0,12.0,-100.00,NNW,330,14.0,14.0,61,-99.99,,,-99.99,,2013-01-01 18:42:00,
2013-01-01 12:53:00,23.0,12.0,-100.00,NW,325,12.0,14.0,61,-99.99,,,-99.99,,2013-01-01 18:53:00,
2013-01-01 13:02:00,23.0,12.0,-100.00,NW,325,12.0,14.0,61,-99.99,,,-99.99,,2013-01-01 19:02:00,
2013-01-01 13:12:00,23.0,10.0,-100.00,NNW,345,11.0,12.0,58,-99.99,,,-99.99,,2013-01-01 19:12:00,
2013-01-01 13:22:00,23.0,10.0,-100.00,NNW,345,10.0,11.0,56,-99.99,,,-99.99,,2013-01-01 19:22:00,
2013-01-01 13:33:00,23.0,10.0,-100.00,NNW,345,10.0,11.0,56,-99.99,,,-99.99,,2013-01-01 19:33:00,
2013-01-01 13:42:00,24.0,10.0,-100.00,NW,325,10.0,14.0,55,-99.99,,,-99.99,,2013-01-01 19:42:00,
2013-01-01 13:53:00,24.0,9.0,-100.00,North,355,11.0,14.0,53,-99.99,,,-99.99,,2013-01-01 19:53:00,
2013-01-01 14:02:00,24.0,9.0,-100.00,North,355,11.0,14.0,53,-99.99,,,-99.99,,2013-01-01 20:02:00,
2013-01-01 14:12:00,24.0,9.0,-100.00,North,355,12.0,14.0,52,-99.99,,,-99.99,,2013-01-01 20:12:00,
2013-01-01 14:23:00,24.0,9.0,-100.00,North,350,11.0,14.0,52,-99.99,,,-99.99,,2013-01-01 20:23:00,
2013-01-01 14:32:00,24.0,9.0,-100.00,North,350,11.0,14.0,52,-99.99,,,-99.99,,2013-01-01 20:32:00,
2013-01-01 14:42:00,24.0,9.0,-100.00,North,350,12.0,14.0,51,-99.99,,,-99.99,,2013-01-01 20:42:00,
2013-01-01 14:53:00,23.0,8.0,-100.00,NNW,330,14.0,16.0,51,-99.99,,,-99.99,,2013-01-01 20:53:00,
2013-01-01 15:03:00,23.0,8.0,-100.00,NNW,330,14.0,16.0,51,-99.99,,,-99.99,,2013-01-01 21:03:00,
2013-01-01 15:12:00,24.0,8.0,-100.00,NNW,335,10.0,11.0,50,-99.99,,,-99.99,,2013-01-01 21:12:00,
2013-01-01 15:22:00,23.0,7.0,-100.00,NNW,340,10.0,12.0,50,-99.99,,,-99.99,,2013-01-01 21:22:00,
2013-01-01 15:33:00,23.0,7.0,-100.00,NNW,340,10.0,12.0,50,-99.99,,,-99.99,,2013-01-01 21:33:00,
2013-01-01 15:42:00,22.0,8.0,-100.00,NNW,330,9.0,12.0,55,-99.99,,,-99.99,,2013-01-01 21:42:00,
2013-01-01 15:53:00,21.0,9.0,-100.00,WNW,300,10.0,12.0,60,-99.99,,,-99.99,,2013-01-01 21:53:00,
2013-01-01 16:02:00,21.0,9.0,-100.00,WNW,300,10.0,12.0,60,-99.99,,,-99.99,,2013-01-01 22:02:00,
2013-01-01 16:12:00,20.0,9.0,-100.00,NW,305,11.0,14.0,61,-99.99,,,-99.99,,2013-01-01 22:12:00,
2013-01-01 16:22:00,20.0,9.0,-100.00,NW,310,12.0,14.0,62,-99.99,,,-99.99,,2013-01-01 22:22:00,
2013-01-01 16:33:00,20.0,9.0,-100.00,NW,310,12.0,14.0,62,-99.99,,,-99.99,,2013-01-01 22:33:00,
2013-01-01 16:42:00,20.0,9.0,-100.00,NW,310,12.0,14.0,62,-99.99,,,-99.99,,2013-01-01 22:42:00,
2013-01-01 16:53:00,20.0,9.0,-100.00,NW,310,10.0,11.0,63,-99.99,,,-99.99,,2013-01-01 22:53:00,
2013-01-01 17:02:00,20.0,9.0,-100.00,NW,310,10.0,11.0,63,-99.99,,,-99.99,,2013-01-01 23:02:00,
2013-01-01 17:12:00,20.0,9.0,-100.00,NW,310,10.0,11.0,63,-99.99,,,-99.99,,2013-01-01 23:12:00,
2013-01-01 17:22:00,18.0,9.0,-100.00,NW,315,11.0,14.0,66,-99.99,,,-99.99,,2013-01-01 23:22:00,
2013-01-01 17:32:00,18.0,9.0,-100.00,NW,315,9.0,11.0,66,-99.99,,,-99.99,,2013-01-01 23:32:00,
2013-01-01 17:42:00,18.0,9.0,-100.00,NW,315,9.0,11.0,66,-99.99,,,-99.99,,2013-01-01 23:42:00,
2013-01-01 17:53:00,18.0,9.0,-100.00,NW,320,9.0,10.0,66,-99.99,,,-99.99,,2013-01-01 23:53:00,
2013-01-01 18:02:00,18.0,9.0,-100.00,NW,320,9.0,10.0,66,-99.99,,,-99.99,,2013-01-02 00:02:00,
2013-01-01 18:12:00,17.0,8.0,-100.00,NW,320,6.0,8.0,66,-99.99,,,-99.99,,2013-01-02 00:12:00,
2013-01-01 18:22:00,16.0,7.0,-100.00,WNW,300,4.0,6.0,66,-99.99,,,-99.99,,2013-01-02 00:22:00,
2013-01-01 18:32:00,16.0,7.0,-100.00,WNW,300,4.0,6.0,66,-99.99,,,-99.99,,2013-01-02 00:32:00,
2013-01-01 18:42:00,16.0,7.0,-100.00,NW,315,6.0,6.0,67,-99.99,,,-99.99,,2013-01-02 00:42:00,
2013-01-01 18:53:00,16.0,7.0,-100.00,NW,315,6.0,6.0,67,-99.99,,,-99.99,,2013-01-02 00:53:00,
2013-01-01 19:02:00,16.0,7.0,-100.00,NW,315,8.0,9.0,68,-99.99,,,-99.99,,2013-01-02 01:02:00,
2013-01-01 19:12:00,16.0,8.0,-100.00,NW,310,8.0,9.0,69,-99.99,,,-99.99,,2013-01-02 01:12:00,
2013-01-01 19:22:00,16.0,8.0,-100.00,WNW,295,6.0,8.0,70,-99.99,,,-99.99,,2013-01-02 01:22:00,
2013-01-01 19:32:00,15.0,7.0,-100.00,NW,315,10.0,11.0,71,-99.99,,,-99.99,,2013-01-02 01:32:00,
2013-01-01 19:42:00,15.0,7.0,-100.00,NW,315,10.0,11.0,71,-99.99,,,-99.99,,2013-01-02 01:42:00,
2013-01-01 19:52:00,14.0,6.0,-100.00,NW,320,9.0,10.0,71,-99.99,,,-99.99,,2013-01-02 01:52:00,
2013-01-01 20:02:00,14.0,6.0,-100.00,NW,320,9.0,10.0,71,-99.99,,,-99.99,,2013-01-02 02:02:00,
2013-01-01 20:12:00,13.0,6.0,-100.00,NW,320,9.0,10.0,72,-99.99,,,-99.99,,2013-01-02 02:12:00,
2013-01-01 20:22:00,13.0,6.0,-100.00,NW,315,6.0,8.0,72,-99.99,,,-99.99,,2013-01-02 02:22:00,
2013-01-01 20:32:00,12.0,5.0,-100.00,NW,320,6.0,8.0,72,-99.99,,,-99.99,,2013-01-02 02:32:00,
2013-01-01 20:42:00,12.0,5.0,-100.00,NW,320,6.0,8.0,72,-99.99,,,-99.99,,2013-01-02 02:42:00,
2013-01-01 20:53:00,12.0,5.0,-100.00,NNW,340,6.0,8.0,72,-99.99,,,-99.99,,2013-01-02 02:53:00,
2013-01-01 21:02:00,12.0,5.0,-100.00,NNW,340,6.0,8.0,72,-99.99,,,-99.99,,2013-01-02 03:02:00,
2013-01-01 21:12:00,11.0,4.0,-100.00,NW,325,8.0,9.0,72,-99.99,,,-99.99,,2013-01-02 03:12:00,
2013-01-01 21:22:00,11.0,4.0,-100.00,NNW,330,9.0,10.0,72,-99.99,,,-99.99,,2013-01-02 03:22:00,
2013-01-01 21:32:00,11.0,4.0,-100.00,NNW,330,9.0,10.0,72,-99.99,,,-99.99,,2013-01-02 03:32:00,
2013-01-01 21:42:00,10.0,3.0,-100.00,NW,320,8.0,8.0,72,-99.99,,,-99.99,,2013-01-02 03:42:00,
2013-01-01 21:53:00,11.0,4.0,-100.00,WNW,295,6.0,6.0,72,-99.99,,,-99.99,,2013-01-02 03:53:00,
2013-01-01 22:02:00,11.0,4.0,-100.00,WNW,295,6.0,6.0,72,-99.99,,,-99.99,,2013-01-02 04:02:00,
2013-01-01 22:03:00,10.0,3.0,-100.00,NW,310,4.0,6.0,73,-99.99,,,-99.99,,2013-01-02 04:03:00,
2013-01-01 22:12:00,10.0,3.0,-100.00,WNW,300,6.0,6.0,73,-99.99,,,-99.99,,2013-01-02 04:12:00,
2013-01-01 22:22:00,10.0,3.0,-100.00,NW,320,6.0,6.0,73,-99.99,,,-99.99,,2013-01-02 04:22:00,
2013-01-01 22:32:00,10.0,3.0,-100.00,NW,320,6.0,6.0,73,-99.99,,,-99.99,,2013-01-02 04:32:00,
2013-01-01 22:42:00,10.0,3.0,-100.00,NW,320,6.0,6.0,73,-99.99,,,-99.99,,2013-01-02 04:42:00,
2013-01-01 22:52:00,10.0,3.0,-100.00,NW,310,4.0,6.0,73,-99.99,,,-99.99,,2013-01-02 04:52:00,
2013-01-01 23:12:00,10.0,4.0,-100.00,WNW,300,4.0,6.0,75,-99.99,,,-99.99,,2013-01-02 05:12:00,
2013-01-01 23:22:00,9.0,3.0,-100.00,West,270,3.0,4.0,75,-99.99,,,-99.99,,2013-01-02 05:22:00,
2013-01-01 23:33:00,9.0,3.0,-100.00,West,270,3.0,4.0,75,-99.99,,,-99.99,,2013-01-02 05:33:00,
2013-01-01 23:42:00,8.0,2.0,-100.00,WNW,290,8.0,9.0,76,-99.99,,,-99.99,,2013-01-02 05:42:00,
2013-01-01 23:53:00,8.0,2.0,-100.00,WNW,290,6.0,6.0,77,-99.99,,,-99.99,,2013-01-02 05:53:00,